Location: Gleizolles
(44.4833°N, 6.7667°E)
Time: 11:05:43
(UTC+00:00)

Envisat - Pass Details

Date: 09 December 2021
Orbit: 764 x 766 km, 98.2° (Epoch: 20 January)

Event Time Altitude Azimuth Distance (km) Brightness Sun altitude
Rises 05:45:13 0° 2° (N) 3,243 6.1 -12.4°
Reaches altitude 10° 05:47:53 10° 349° (N) 2,312 5.2 -12.0°
Maximum altitude 05:51:56 25° 296° (WNW) 1,526 4.0 -11.3°
Drops below altitude 10° 05:55:59 10° 243° (WSW) 2,299 5.1 -10.6°
Sets 05:58:38 0° 230° (SW) 3,220 6.0 -10.2°
